Location: Bruderhein
(53.8035°N, 112.9265°W)
Time: 10:21:11
(UTC+00:00)

Meteor 1-19 Rocket - Pass Details

Date: 06 December 2023
Orbit: 806 x 928 km, 81.2° (Epoch: 04 March)

Event Time Altitude Azimuth Distance (km) Brightness Sun altitude
Rises 13:10:39 0° 348° (NNW) 3,592 7.2 -19.7°
Reaches altitude 10° 13:13:19 10° 356° (N) 2,644 6.6 -19.3°
Maximum altitude 13:19:01 40° 65° (ENE) 1,326 5.6 -18.5°
Drops below altitude 10° 13:24:35 10° 135° (SE) 2,593 7.6 -17.7°
Sets 13:27:11 0° 142° (SE) 3,515 8.3 -17.3°
